Location: Doverdale
(52.2833°N, 2.2000°W)
Time: 05:29:05
(UTC+00:00)

Aureole 3 Rocket - Pass Details

Date: 29 October 2020
Orbit: 399 x 1739 km, 82.5° (Epoch: 25 November)

Event Time Altitude Azimuth Distance (km) Brightness Sun altitude
Rises 18:06:24 0° 184° (S) 2,747 6.5 -13.0°
Reaches altitude 10° 18:08:16 10° 183° (S) 1,982 5.8 -13.3°
Maximum altitude 18:12:38 78° 97° (E) 792 3.4 -13.9°
Drops below altitude 10° 18:18:51 10° 13° (NNE) 2,800 6.2 -14.9°
Sets 18:21:54 0° 12° (NNE) 3,987 7.0 -15.3°
